User: anonymous
Location: Mentone
(34.5413°N, 85.5351°W)
Time: 19:48:40
(UTC-05:00)
Language:

Centaur AC-72 - Orbit

View from above orbital plane
View from above orbital plane
View from above satellite
View from above satellite

Ground track
Ground track

The orbit data is extracted from the following two-line orbital elements,

1 21907U 92013B   14106.09406329 -.00000022  00000-0  00000+0 0  8587
2 21907 019.3884 281.3664 6958800 195.4433 117.1939 02.25604588182135
Epoch (UTC): 16 April 2014 02:15:27
Eccentricity: 0.6958800
inclination: 19.3884°
perigee height: 1090 km
apogee height: 35267 km
right ascension of ascending node: 281.3664°
argument of perigee: 195.4433°
revolutions per day: 2.25604588
mean anomaly at epoch: 117.1939°
orbit number at epoch: 18213

The dashed part of the orbit path shows where the satellite is in the earth's shadow,  

DLR